TITAN 3C TRANSTAGE DEB, 26524

Orbit data source: Space-Track

TITAN 3C TRANSTAGE DEB, 26524 is space debris in HEO originally from a launch on Tue, 21 Dec 1965 UTC launched from the Air Force Eastern Test Range (AFETR). Debris objects in space refer to the collection of defunct objects orbiting the Earth. Examples of debris include non-operational satellites, rocket bodies, and fragments generated from explosions, collisions, or faulty payload assembly.

Loading next visibility...
Identifier
26524, 1965-108AK
Orbit
HEO
Country
Flag of USUS
Related business
Manufacturer
Unknown
Mission
Spacecraft
Bus & Motor
Unknown
Mass
Unknown
Launch date (UTC)
1965-12-21 (60 years ago)
Launch vehicle
Unknown
Launch site
Air Force Eastern Test Range (AFETR)
Object type
Payload
Rocket body
Debris
Shape & HBR
Unknown shape, 0.1 m
Radar Cross Section
Medium (>0.1 m² and <1 m²)

Expand to show TLE details & history
Last TLE update: 2 days ago

TLE from 2 days ago
0 TITAN 3C TRANSTAGE DEB
1 26524U 65108AK  26032.57554637 -.00000422  00000-0 -43061-2 0  9990
2 26524  26.4047 149.9663 6707033  92.6493   1.3617  2.81820150 40033
Epoch: 2026-02-01T13:48Z
TLE epoch observation values (Epoch: 2026-02-01T13:48:47.206Z)
Latitude
25.93678°
Longitude
-85.86007°
Altitude
638.672 km
Speed
9.738 km/s
True Right ascension
16h 52m 28s
True Declination
25° 47' 58"
Sunlit
Object was in daylight at epoch
Visualization orbit readout
Latitude
Unknown
Longitude
Unknown
Altitude
Unknown
Speed
Unknown
Apparent Right ascension
Unknown
Apparent Declination
Unknown
Sunlit
N/A
Visualization observer readout
Local Sidereal Time
21:42:55
Azimuth
Unknown
Elevation
Unknown
Doppler factor
Unknown
Orbital elements
Apogee altitude
28,999.349 km
Perigee altitude
594.788 km
Semi-major axis
21,175.205 km
Eccentricity
0.6707
Inclination
26.4047°
RAAN
149.9663°
Arg. of periapsis
92.6493°
True anomaly
9.28159°
Mean anomaly
1.3617°
Eccentric anomaly
4.12791°
Mean motion
0.70437 °/min
Orbital period
511.09 mins
BSTAR
-0.0043061
Loading maneuver chart data...
Computing Atmospheric mass density...

Documentation

Showing up to 5 results
|